Regional Weather Roundup
Issued by NWS

Home | Current Version | Previous Version | Text Only | Print | Product List | Glossary On
Versions: 1 2 3 4 5 6 7 8 9 10 11 12 13 14 15 16 17 18 19 20 21 22 23 24 25 26 27 28 29 30 31 32 33 34 35 36 37 38 39 40 41 42 43 44 45 46 47 48 49 50
000
ASUS44 KJAN 160110
RWRMS

MISSISSIPPI HOURLY WEATHER ROUNDUP
NATIONAL WEATHER SERVICE JACKSON MS
800 PM CDT MON SEP 15 2014

NOTE: "FAIR: INDICATES FEW OR NO CLOUDS BELOW 12,000 FEET WITH NO
SIGNIFICANT WEATHER AND/OR OBSTRUCTIONS TO VISIBILITY.

MSZ001>002-007>008-010>013-018>021-025>028-034>036-160200-
NORTHWEST MISSISSIPPI

CITY           SKY/WX    TMP DP  RH WIND       PRES   REMARKS
CLARKSDALE     FAIR      75  68  78 CALM      30.11R
CLEVELAND      FAIR      76  69  78 CALM      30.09S
GREENWOOD      MOCLDY    75  70  84 CALM      30.09S
GREENVILLE     CLOUDY    76  67  73 N5        30.09S
GRENADA        FAIR      73  70  88 CALM      30.10R
OLIVE BRANCH   MOCLDY    73  72  94 CALM      30.11R
OXFORD         FAIR      72  68  88 CALM      30.12R
TUNICA         LGT RAIN  73  68  83 CALM      30.11S
$$

MSZ003>006-009-014>017-022>024-029>033-037>039-160200-
NORTHEAST MISSISSIPPI

CITY           SKY/WX    TMP DP  RH WIND       PRES   REMARKS
COLUMBUS AFB   MOCLDY    78  69  73 CALM      30.09S
CORINTH        DRIZZLE   75  68  78 CALM      30.10S
GOLDN TRIANGLE PTCLDY    81  68  65 N5        30.09F
STARKVILLE     FAIR      75  70  83 CALM      30.09S
TUPELO         CLOUDY    79  68  69 CALM      30.09S
$$

MSZ040-058-160200-
CENTRAL MISSISSIPPI

CITY           SKY/WX    TMP DP  RH WIND       PRES   REMARKS
JACKSON INTL   PTCLDY    80  72  76 N3        30.09R
JACKSON HAWKNS PTCLDY    82  71  69 CALM      30.10R
MERIDIAN KEY   PTCLDY    79  73  82 CALM      30.09R
MERIDIAN NAS   MOCLDY    77  73  87 CALM      30.09R
RAYMOND        FAIR      75  72  88 CALM      30.09S
VICKSBURG      MOCLDY    78  72  81 CALM      30.08R
$$

MSZ059>079-160200-
SOUTH MISSISSIPPI

CITY           SKY/WX    TMP DP  RH WIND       PRES   REMARKS
BROOKHAVEN     FAIR      79  75  89 CALM      30.10S
HATTIESBURG    MOCLDY    82  73  74 S3        30.08R
MCCOMB         MOCLDY    84  72  67 NE3       30.08R
NATCHEZ        PTCLDY    79  73  83 CALM      30.08R
PINE BELT      PTCLDY   N/A N/A N/A SE6       30.10R
$$

MSZ080>082-160200-
COASTAL MISSISSIPPI

CITY           SKY/WX    TMP DP  RH WIND       PRES   REMARKS
BAY ST LOUIS   PTCLDY    79  73  83 W3        30.07R
BILOXI         MOCLDY    84  75  74 SW3       30.06R HX  91
PASCAGOULA     MOCLDY    78  76  93 CALM      30.06R
GULFPORT       CLOUDY    83  75  77 CALM      30.06R HX  90
$$


USA.gov is the U.S. government's official web portal to all federal, state and local government web resources and services.